Cairo, IL

11:10 PM CST on November 21, 2019 (GMT -0600)
Cairo Regional

Weather History for KCIR - October, 2019

Change the Weather History Date:

Wednesday, October 23, 2019

  Actual Average Record
Temperature  
Mean Temperature 53 °F -  
Max Temperature 68 °F 66 °F 85 °F (1963)
Min Temperature 38 °F 46 °F 31 °F (1981)
Degree Days  
Heating Degree Days 12    
Growing Degree Days 3 (Base 50)    
Moisture  
Dew Point 40 °F    
Average Humidity 65    
Maximum Humidity 99    
Minimum Humidity 35    
Precipitation  
Precipitation 0.00 in - - ()
Sea Level Pressure  
Sea Level Pressure 30.11 in    
Wind  
Wind Speed 3 mph ()    
Max Wind Speed 15 mph    
Max Gust Speed 23 mph    
Visibility 10.0 miles    
Events      
Averages and records for this station are not official NWS values.
T = Trace of Precipitation, MM = Missing Value Source: Averaged Metar Reports

Daily Weather History Graph

Daily Weather History Graph

Search for Another Location

Airport or City:

Astronomy

Oct. 23, 2019 Rise Set
Actual Time 7:11 AM CDT 6:09 PM CDT
Civil Twilight 6:45 AM CDT 6:36 PM CDT
Nautical Twilight 6:15 AM CDT 7:06 PM CDT
Astronomical Twilight 5:44 AM CDT 7:36 PM CDT
Moon 1:40 AM CDT (10/23) 3:51 PM CDT (10/23)
Length of Visible Light 11h 50m
Length of Day
10h 57m
Waning Crescent, 26% of the Moon is Illuminated
Oct 23
Waning Crescent
Oct 27
New
Nov 4
First Quarter
Nov 12
Full
Nov 19
Last Quarter

Hourly Weather History & Observations

Time (CDT) Temp. Dew Point Humidity Pressure Visibility Wind Dir Wind Speed Gust Speed Precip Events Conditions
12:15 AM 46.6 °F 39.6 °F 77% 30.08 in 10.0 mi Calm Calm - N/A   Clear
12:35 AM 43.9 °F 39.2 °F 84% 30.08 in 10.0 mi Calm Calm - N/A   Clear
12:55 AM 43.9 °F 38.3 °F 81% 30.07 in 10.0 mi Calm Calm - N/A   Clear
1:35 AM 41.9 °F 38.7 °F 88% 30.08 in 10.0 mi Calm Calm - N/A   Clear
1:55 AM 40.5 °F 38.5 °F 93% 30.09 in 10.0 mi Calm Calm - N/A   Clear
2:15 AM 41.9 °F 39.2 °F 90% 30.08 in 10.0 mi Calm Calm - N/A   Clear
2:35 AM 40.8 °F 37.6 °F 88% 30.08 in 10.0 mi Calm Calm - N/A   Clear
2:55 AM 39.2 °F 38.1 °F 96% 30.08 in 10.0 mi Calm Calm - N/A   Clear
3:15 AM 38.7 °F 37.0 °F 94% 30.07 in 10.0 mi Calm Calm - N/A   Clear
3:35 AM 38.5 °F 36.9 °F 94% 30.07 in 10.0 mi Calm Calm - N/A   Clear
3:55 AM 38.5 °F 37.9 °F 98% 30.07 in 10.0 mi Calm Calm - N/A   Clear
4:15 AM 39.2 °F 38.5 °F 97% 30.08 in 10.0 mi Calm Calm - N/A   Clear
4:35 AM 38.3 °F 37.6 °F 97% 30.09 in 10.0 mi Calm Calm - N/A   Clear
4:55 AM 38.5 °F 38.3 °F 99% 30.10 in 10.0 mi Calm Calm - N/A   Clear
5:15 AM 41.9 °F 38.1 °F 86% 30.11 in 10.0 mi Calm Calm - N/A   Clear
5:35 AM 42.3 °F 37.9 °F 85% 30.11 in 10.0 mi Calm Calm - N/A   Clear
5:55 AM 41.9 °F 37.6 °F 85% 30.11 in 10.0 mi Calm Calm - N/A   Clear
6:15 AM 39.2 °F 36.3 °F 89% 30.12 in 10.0 mi Calm Calm - N/A   Clear
6:35 AM 38.1 °F 36.5 °F 94% 30.11 in 10.0 mi Calm Calm - N/A   Clear
7:15 AM 39.7 °F 38.1 °F 94% 30.11 in 10.0 mi Calm Calm - N/A   Clear
7:35 AM 38.8 °F 37.9 °F 97% 30.11 in 10.0 mi Calm Calm - N/A   Clear
7:55 AM 40.3 °F 40.1 °F 99% 30.12 in 10.0 mi Calm Calm - N/A   Clear
8:15 AM 43.5 °F 42.6 °F 97% 30.13 in 10.0 mi Calm Calm - N/A   Clear
8:35 AM 48.0 °F 42.4 °F 81% 30.15 in 10.0 mi Calm Calm - N/A   Clear
9:15 AM 50.4 °F 42.8 °F 75% 30.16 in 10.0 mi Calm Calm - N/A   Clear
9:35 AM 52.0 °F 43.2 °F 72% 30.16 in 10.0 mi Calm Calm - N/A   Clear
9:55 AM 54.0 °F 42.8 °F 66% 30.16 in 10.0 mi SSW 5.8 mph - N/A   Clear
10:15 AM 56.3 °F 43.5 °F 62% 30.16 in 10.0 mi South 5.8 mph - N/A   Clear
10:35 AM 58.1 °F 43.9 °F 59% 30.16 in 10.0 mi South 4.6 mph - N/A   Clear
11:15 AM 61.7 °F 41.5 °F 48% 30.16 in 10.0 mi South 12.7 mph 17.3 mph N/A   Clear
11:35 AM 62.8 °F 40.8 °F 45% 30.15 in 10.0 mi South 8.1 mph 17.3 mph N/A   Clear
11:55 AM 64.2 °F 40.3 °F 41% 30.15 in 10.0 mi SSW 12.7 mph - N/A   Clear
12:15 PM 64.6 °F 39.2 °F 39% 30.15 in 10.0 mi SSW 13.8 mph 20.7 mph N/A   Clear
12:35 PM 65.5 °F 38.1 °F 36% 30.14 in 10.0 mi SSW 15.0 mph 20.7 mph N/A   Clear
12:55 PM 66.2 °F 38.7 °F 36% 30.13 in 10.0 mi South 13.8 mph 20.7 mph N/A   Clear
1:15 PM 66.4 °F 38.8 °F 36% 30.12 in 10.0 mi SSW 11.5 mph 23.0 mph N/A   Clear
1:35 PM 67.3 °F 39.0 °F 35% 30.11 in 10.0 mi South 11.5 mph 19.6 mph N/A   Clear
1:55 PM 68.2 °F 39.7 °F 35% 30.09 in 10.0 mi South 15.0 mph 21.9 mph N/A   Clear
2:15 PM 67.8 °F 39.9 °F 36% 30.09 in 10.0 mi SSW 15.0 mph 21.9 mph N/A   Clear
2:35 PM 68.0 °F 39.9 °F 36% 30.08 in 10.0 mi SSW 13.8 mph 20.7 mph N/A   Clear
2:55 PM 67.8 °F 40.1 °F 36% 30.08 in 10.0 mi South 10.4 mph 19.6 mph N/A   Clear
3:15 PM 68.2 °F 42.1 °F 39% 30.08 in 10.0 mi SSW 11.5 mph - N/A   Clear
3:35 PM 68.0 °F 41.7 °F 38% 30.08 in 10.0 mi South 12.7 mph 18.4 mph N/A   Clear
3:55 PM 67.3 °F 41.2 °F 39% 30.09 in 10.0 mi South 11.5 mph 23.0 mph N/A   Clear
4:15 PM 67.5 °F 41.4 °F 39% 30.08 in 10.0 mi South 9.2 mph 16.1 mph N/A   Clear
4:35 PM 67.1 °F 40.5 °F 38% 30.08 in 10.0 mi South 8.1 mph 17.3 mph N/A   Clear
4:55 PM 66.4 °F 40.1 °F 38% 30.08 in 10.0 mi South 8.1 mph - N/A   Clear
5:15 PM 65.5 °F 40.3 °F 40% 30.08 in 10.0 mi South 9.2 mph - N/A   Clear
5:35 PM 64.6 °F 41.0 °F 42% 30.09 in 10.0 mi SSW 6.9 mph - N/A   Clear
6:15 PM 60.6 °F 41.9 °F 50% 30.09 in 10.0 mi Calm Calm - N/A   Clear
6:35 PM 58.6 °F 42.3 °F 55% 30.10 in 10.0 mi Calm Calm - N/A   Clear
7:15 PM 57.4 °F 43.3 °F 59% 30.10 in 10.0 mi SSE 3.5 mph - N/A   Clear
7:35 PM 56.7 °F 43.0 °F 60% 30.10 in 10.0 mi Calm Calm - N/A   Clear
7:55 PM 55.8 °F 42.8 °F 62% 30.10 in 10.0 mi Calm Calm - N/A   Clear
8:15 PM 55.8 °F 42.4 °F 61% 30.11 in 10.0 mi Calm Calm - N/A   Clear
8:35 PM 56.3 °F 42.1 °F 59% 30.11 in 10.0 mi SSE 4.6 mph - N/A   Clear
8:55 PM 55.8 °F 41.7 °F 59% 30.11 in 10.0 mi SSE 5.8 mph - N/A   Clear
9:15 PM 56.3 °F 41.0 °F 57% 30.11 in 10.0 mi South 6.9 mph - N/A   Clear
9:35 PM 56.3 °F 40.8 °F 56% 30.12 in 10.0 mi South 8.1 mph - N/A   Clear
9:55 PM 55.9 °F 41.0 °F 57% 30.13 in 10.0 mi South 5.8 mph - N/A   Clear
10:15 PM 55.0 °F 41.0 °F 59% 30.14 in 10.0 mi South 5.8 mph - N/A   Clear
10:35 PM 54.3 °F 41.2 °F 61% 30.14 in 10.0 mi Calm Calm - N/A   Clear
11:15 PM 53.4 °F 41.2 °F 63% 30.16 in 10.0 mi Calm Calm - N/A   Clear
11:35 PM 53.2 °F 41.0 °F 63% 30.16 in 10.0 mi South 4.6 mph - N/A   Clear
11:55 PM 52.0 °F 41.4 °F 67% 30.15 in 10.0 mi Calm Calm - N/A   Clear